www.pogodaiklimat.ru

АРХИВ ПОГОДЫ в Вашингтоне

Время (UTC), дата Ветер
(напр.,м/с)
 
Видим.   Явления Облачность Т
(С)
Тd
(С)
f
(%)
Тe
(С)
Тes
(С)
Комфортность

P
(гПа)

Po
(гПа)
Тmin
(С)
Tmax
(С)
R
(мм)
SD
(см)
02:52 19.02 Ю  16 км    8/0 7500 м
[верхняя] 
+5.0  0.0  70  +2  +2    1032.5  1031.9         
03:52 19.02 ЮВ  16 км    8/0 7500 м
[верхняя] 
+5.0  0.0  70  +2  +2    1032.8  1032.2         
04:52 19.02 Ю  16 км    8/0 4200 м
[средняя верхняя] 
+5.0  0.0  70  +1  +1    1032.7  1032.2         
05:52 19.02 Ю  16 км    8/0 4200 м
[средняя верхняя] 
+4.0  +1.0  81  -1  -1    1032.6  1032.2  +4.4       
06:52 19.02 Ю  16 км    10/8 1500 м
[верхняя] 
+4.4  +1.1  79  -1  -1    1032.6  1032.2         
07:52 19.02 Ю  16 км    10/10 1470 м  +5.0  +1.7  79  0  0    1032.6  1032.2         
08:52 19.02 ЮЗ  16 км    10/10 1500 м  +4.4  +1.1  79  +1  +1    1032.6  1032.2         
09:52 19.02 Ю  16 км    10/8 1440 м
[средняя] 
+4.4  +1.7  83  +1  +1    1032.7  1032.2         
10:52 19.02 Ю  16 км    10/2 1440 м
[средняя] 
+5.0  +1.7  79  +2  +2    1032.7  1032.2         
11:52 19.02 Ю  16 км  слабый дождь  10/2 360 м
[средняя] 
+5.0  +2.8  86  -0  -0      1031.2  +4.4  +5.0     
12:52 19.02 Ю  16 км    10/10 360 м  +5.0  +3.9  93  +2  +2    1032.5  1031.9         
13:33 19.02 Ю  16 км    10/8 330 м
[средняя] 
+5.0  +3.9  93  +1  +1      1031.9         
13:52 19.02 Ю  16 км    10/8 330 м
[средняя] 
+6.0  +4.0  87  +2  +2    1032.6  1032.2         
14:42 19.02 Ю  16 км    10/10 360 м  +5.6  +4.4  92  +1  +1      1031.6         
14:52 19.02 Ю  16 км    10/10 360 м  +6.0  +4.0  87  +2  +2    1032.2  1031.6         
15:52 19.02 Ю  16 км    10/10 600 м  +6.1  +3.9  86  +2  +2    1032.1  1031.6         
16:52 19.02 Ю  16 км    10/10 450 м  +6.7  +3.9  82  +3  +3    1031.5  1030.9         
17:24 19.02 Ю  8 км  дымка  10/10 330 м  +6.1  +5.0  93  +2  +2      1030.2         
17:29 19.02 Ю  4 км  дымка  10/10 330 м  +6.1  +5.0  93  +2  +2      1030.2         
17:52 19.02 Ю  4 км  дымка  10/10 330 м  +6.0  +6.0  100  +2  +2    1030.3  1029.9  +5.0  +6.7     
18:07 19.02 Ю  5 км  дымка  10/10 450 м  +6.1  +5.6  97  +2  +2      1029.5         
18:35 19.02 Ю  8 км  дымка  10/10 300 м  +6.7  +6.1  96  +3  +3      1029.2         
18:45 19.02 Ю  4 км  дымка  10/10 210 м  +6.7  +6.1  96  +3  +3      1028.9         
18:52 19.02 Ю  4 км  дымка  10/10 210 м  +7.0  +6.0  93  +3  +3    1029.6  1029.2         
18:54 19.02 Ю  5 км  дымка  10/10 210 м  +6.7  +6.1  96  +3  +3      1029.2         
19:31 19.02 Ю  3 км  дымка  10/10 150 м  +6.7  +6.7  100  +3  +3      1028.5         
19:52 19.02 Ю  5 км  дымка  10/10 150 м  +6.7  +6.7  100  +2  +2    1028.5  1027.8         
20:33 19.02 Ю  16 км    10/10 180 м  +7.2  +6.7  97  +4  +4      1027.8         
20:52 19.02 Ю  16 км    10/10 180 м  +7.2  +6.7  97  +4  +4    1028.0  1027.5         
21:52 19.02 Ю  16 км    10/10 180 м  +8.3  +7.2  93  +5  +5    1028.1  1027.5         
22:52 19.02 Ю  16 км    10/10 180 м  +8.3  +7.8  97  +5  +5    1027.9  1027.5         
23:52 19.02 Ю  14 км    10/10 150 м  +8.9  +8.3  96  +6  +6    1027.9  1027.5    +8.9     
23:59 19.02 Ю  14 км    10/10 120 м  +8.9  +8.3  96  +6  +6      1027.5         
00:27 20.02 Ю  14 км    10/10 150 м  +8.9  +8.3  96  +6  +6      1027.8         
00:52 20.02 Ю  13 км    10/10 150 м  +8.9  +8.3  96  +6  +6    1027.9  1027.5         
01:52 20.02 Ю  13 км    10/10 150 м  +8.9  +8.3  96  +6  +6    1028.1  1027.5         
02:52 20.02 Ю  14 км    10/10 180 м  +9.4  +8.9  97  +7  +7    1027.8  1027.2         
03:52 20.02 Ю  11 км    10/10 180 м  +10.0  +8.9  93  +7  +7    1028.1  1027.5         
04:52 20.02 Ю  16 км    10/10 180 м  +10.0  +9.4  96  +6  +6    1027.8  1027.2         
05:52 20.02 Ю  14 км    10/10 180 м  +10.0  +9.4  96  +7  +7    1027.6  1027.2    +10.0     
06:52 20.02 Ю  16 км    10/10 180 м  +10.6  +10.0  96  +7  +7    1027.4  1026.8         
07:41 20.02 Ю  8 км  дымка  10/10 120 м  +10.6  +10.6  100  +7  +7      1026.5         
07:52 20.02 Ю  8 км  дымка  10/10 120 м  +10.6  +10.6  100  +7  +7    1026.9  1026.5         
08:52 20.02 Ю  11 км    10/10 120 м  +11.1  +11.1  100  +8  +8    1026.9  1026.5         
09:05 20.02 ЮЗ  16 км    10/10 150 м  +11.7  +11.1  96  +8  +8      1026.5         
09:52 20.02 Ю  16 км    10/10 180 м  +11.7  +11.1  96  +9  +9    1027.2  1026.5         
10:52 20.02 Ю  16 км    10/10 180 м  +12.2  +11.7  97  +10  +10    1027.8  1027.2         
11:52 20.02 Ю  16 км    10/10 180 м  +12.0  +12.0  100  +9  +9    1028.4  1027.8  +10.0       

 

Местоположение метеостанции Reagan National Airport: широта 38.8483 долгота -77.0342 высота над уровнем моря 4 м.

В архиве по умолчанию представлена погода в Вашингтоне за последние 1-2 суток. Обновление информации о фактической погоде в базе происходит ежечасно! Архивные данные за месяц целиком и за предыдущие месяцы Вы можете получить, выбрав интересующий диапазон дат из раскрывающегося списка и нажав кнопку "Ввод!".

Внимание! Архив погоды МЕТАР в базе сайта в настоящее время начинается c 1 января 2013 г. Нет смысла пытаться выбрать более раннюю дату.

Внимание! Время в таблицах - всемирное. Для получения местного времени необходимо прибавить поправку, которая в Вашингтоне равна -5 ч.

Ветер - указаны скорость ветра в м/с и направление, откуда дует ветер: С - северный, СВ - северо-восточный, В - восточный, ЮВ - юго-восточный, Ю - южный, ЮЗ - юго-западный, З - западный, СЗ - северо-западный.
Видимость - горизонтальная дальность видимости в метрах или километрах. При видимости от 1 до 10 км при отсутствии осадков обычно наблюдается дымка, при ухудшении видимости до 1 км и менее - туман. В сухую погоду видимость может ухудшаться дымом, пылью или мглою.
Атмосферные явления - указаны явления, наблюдавшиеся в указанный момент времени.
Облачность - указаны через наклонную черту верхняя и нижняя облачность в баллах и высота нижней границы облаков в метрах. Внимание: облачность, как и прочие метеорологические величины в США измеряются автоматическими метеостанциями. Указанные значения в баллах носят условный характер и показывают процент времени, в течение которого, в среднем, лазерный луч высотомера отражался от облаков обратно.
T - Температура воздуха - температура, измеренная на высоте 2 м над землей.
Td - Температура точки росы - температура, при понижении до которой содержащийся в воздухе водяной пар достигнет насыщения.
f - Относительная влажность воздуха - влажноcть воздуха, измеренная на высоте 2 м над землей.
Te - Эффективная температура - температура, которую ощущает одетый по сезону человек в тени. Характеристика душности погоды. При расчете учитывается влияние влажности воздуха и скорости ветра на теплоощущения человека.
Tes - Эффективная температура на солнце - температура, которую ощущает человек, с поправкой на солнечный нагрев. Характеристика знойности погоды. Зависит от высоты солнца над горизонтом, облачности и скорости ветра. Ночью, в пасмурную погоду, а также при ветре 12 м/с и более поправка равна нулю.
P - Атмосферное давление - приведенное к уровню моря атмосферное давление.
Po - Атмосферное давление - измеренное на уровне метеостанции атмосферное давление.
Tmin - Минимальная температура - минимум температуры воздуха на высоте 2 м над землей.
Tmax - Максимальная температура - максимум температуры воздуха на высоте 2 м над землей.
R - Количество осадков - Количество выпавших осадков за 3 или 6 часов, мм.
SD - Снежный покров - Высота снежного покрова, см.